This is the latest recevied weather packets stored in our database for station/object XE2G-31. If no packets are shown the sender has not sent any weather packets the latest 10 day(s).
| Time | Temp. | Humidity | Pressure | Rain* | Wind** | Luminosity | Snow |
|---|---|---|---|---|---|---|---|
| 1778180009 | 25° C | 72% | 871 hPa | - | - | - | - |
| 1778179062 | 25° C | 72% | 871 hPa | - | - | - | - |
| 1778178116 | 24.44° C | 74% | 871 hPa | - | - | - | - |
| 1778177169 | 24.44° C | 73% | 872 hPa | - | - | - | - |
| 1778176222 | 25.56° C | 71% | 872 hPa | - | - | - | - |
| 1778175275 | 23.89° C | 76% | 872 hPa | - | - | - | - |
| 1778174328 | 23.89° C | 77% | 872 hPa | - | - | - | - |
| 1778173381 | 23.89° C | 78% | 872 hPa | - | - | - | - |
| 1778172435 | 23.89° C | 79% | 872 hPa | - | - | - | - |
| 1778171488 | 23.89° C | 80% | 872 hPa | - | - | - | - |
| 1778170541 | 23.33° C | 79% | 872 hPa | - | - | - | - |
| 1778169594 | 23.89° C | 77% | 872 hPa | - | - | - | - |
| 1778168648 | 24.44° C | 76% | 872 hPa | - | - | - | - |
| 1778167700 | 25.56° C | 71% | 872 hPa | - | - | - | - |
| 1778166754 | 26.11° C | 67% | 872 hPa | - | - | - | - |
| 1778165807 | 28.89° C | 57% | 872 hPa | - | - | - | - |
| 1778164860 | 27.22° C | 65% | 872 hPa | - | - | - | - |
| 1778163913 | 27.22° C | 63% | 872 hPa | - | - | - | - |
| 1778162966 | 28.33° C | 58% | 872 hPa | - | - | - | - |
| 1778162019 | 27.78° C | 58% | 872 hPa | - | - | - | - |
| 1778161073 | 26.67° C | 62% | 871 hPa | - | - | - | - |
| 1778160126 | 25.56° C | 66% | 871 hPa | - | - | - | - |
| 1778159179 | 24.44° C | 71% | 871 hPa | - | - | - | - |
| 1778158233 | 25.56° C | 67% | 871 hPa | - | - | - | - |
| 1778157285 | 22.78° C | 75% | 871 hPa | - | - | - | - |
* Rain since midnight (hover to see other rain measurements)
** Current wind speed in m/s (hover to see current wind gust speed)